BM1CCR-13 Weather Reports


time (UTC)temp
C
wind
direction
speed
KPH
gust
KPH
rain 1hr
cm
rain 24hr
cm
rain mn
cm
humidity
%
barometer
mb
20260504110504 18 0 0.0 0.0 0.00 0.00 0.00 82 1008.3
20260504100502 20 0 0.0 0.0 0.00 0.00 0.00 67 1007.5
20260504082002 21 0 0.0 0.0 0.00 0.00 0.00 52 1006.5
20260504081500 21 0 0.0 0.0 0.00 0.00 0.00 52 1006.4
20260504081012 21 0 0.0 0.0 0.00 0.00 0.00 52 1006.3
20260504081000 21 0 0.0 0.0 0.00 0.00 0.00 52 1006.2
20260504080512 21 0 0.0 0.0 0.00 0.00 0.00 51 1006.4
20260504080501 21 0 0.0 0.0 0.00 0.00 0.00 51 1006.2
20260504050506 25 0 0.0 0.0 0.00 0.00 0.00 58 1007.1
20260504050454 25 0 0.0 0.0 0.00 0.00 0.00 58 1007.2
20260504045954 25 0 0.0 0.0 0.00 0.00 0.00 57 1007.0
20260504045454 25 0 0.0 0.0 0.00 0.00 0.00 58 1007.0
20260504045006 25 0 0.0 0.0 0.00 0.00 0.00 59 1007.1
20260504044954 25 0 0.0 0.0 0.00 0.00 0.00 59 1007.0
20260504044507 23 0 0.0 0.0 0.00 0.00 0.00 61 1007.1
20260504044454 23 0 0.0 0.0 0.00 0.00 0.00 61 1007.0
20260504043954 23 0 0.0 0.0 0.00 0.00 0.00 61 1007.3
20260504043454 23 0 0.0 0.0 0.00 0.00 0.00 63 1007.2
20260504042954 23 0 0.0 0.0 0.00 0.00 0.00 63 1007.5
20260504042504 23 0 0.0 0.0 0.00 0.00 0.00 61 1007.4
20260504042454 23 0 0.0 0.0 0.00 0.00 0.00 61 1007.3
20260504042004 23 0 0.0 0.0 0.00 0.00 0.00 61 1007.3
20260504041952 23 0 0.0 0.0 0.00 0.00 0.00 61 1007.4
20260504041452 23 0 0.0 0.0 0.00 0.00 0.00 62 1007.3
20260504040953 22 0 0.0 0.0 0.00 0.00 0.00 65 1007.3
20260504040505 22 0 0.0 0.0 0.00 0.00 0.00 66 1007.5
20260504040453 22 0 0.0 0.0 0.00 0.00 0.00 66 1007.4
20260504040005 21 0 0.0 0.0 0.00 0.00 0.00 66 1007.5
20260504035952 21 0 0.0 0.0 0.00 0.00 0.00 66 1007.6
20260504035453 22 0 0.0 0.0 0.00 0.00 0.00 67 1007.8
20260504035007 22 0 0.0 0.0 0.00 0.00 0.00 65 1007.7
20260504034952 22 0 0.0 0.0 0.00 0.00 0.00 65 1007.6
20260504034452 22 0 0.0 0.0 0.00 0.00 0.00 65 1007.6
20260504034005 22 0 0.0 0.0 0.00 0.00 0.00 66 1007.5
20260504033952 22 0 0.0 0.0 0.00 0.00 0.00 67 1007.5
20260504033453 22 0 0.0 0.0 0.00 0.00 0.00 68 1007.7
20260504032953 22 0 0.0 0.0 0.00 0.00 0.00 66 1007.8
20260504032505 22 0 0.0 0.0 0.00 0.00 0.00 64 1007.7
20260504032452 22 0 0.0 0.0 0.00 0.00 0.00 64 1007.6
20260504031951 23 0 0.0 0.0 0.00 0.00 0.00 63 1007.7
20260504031505 23 0 0.0 0.0 0.00 0.00 0.00 64 1007.9
20260504031451 23 0 0.0 0.0 0.00 0.00 0.00 65 1007.8
20260504031006 23 0 0.0 0.0 0.00 0.00 0.00 67 1007.7
20260504030951 23 0 0.0 0.0 0.00 0.00 0.00 66 1007.7
20260504030451 23 0 0.0 0.0 0.00 0.00 0.00 65 1007.8
20260504025951 23 0 0.0 0.0 0.00 0.00 0.00 62 1007.9
20260504025451 22 0 0.0 0.0 0.00 0.00 0.00 64 1007.9
20260504024952 21 0 0.0 0.0 0.00 0.00 0.00 69 1007.9
20260504024504 21 0 0.0 0.0 0.00 0.00 0.00 71 1008.1
20260504024451 21 0 0.0 0.0 0.00 0.00 0.00 72 1008.1
20260504023951 21 0 0.0 0.0 0.00 0.00 0.00 71 1008.2
20260504023504 21 0 0.0 0.0 0.00 0.00 0.00 70 1008.1
20260504023451 21 0 0.0 0.0 0.00 0.00 0.00 70 1008.2
20260504022951 21 0 0.0 0.0 0.00 0.00 0.00 71 1008.1
20260504022505 20 0 0.0 0.0 0.00 0.00 0.00 75 1008.0
20260504022451 20 0 0.0 0.0 0.00 0.00 0.00 76 1008.1
20260504021951 20 0 0.0 0.0 0.00 0.00 0.00 76 1008.2
20260504021504 20 0 0.0 0.0 0.00 0.00 0.00 77 1008.3
20260504021450 20 0 0.0 0.0 0.00 0.00 0.00 77 1008.4
20260504020950 20 0 0.0 0.0 0.00 0.00 0.00 76 1008.3
20260504020450 20 0 0.0 0.0 0.00 0.00 0.00 75 1008.3
20260504020003 20 0 0.0 0.0 0.00 0.00 0.00 78 1008.2
20260504015950 20 0 0.0 0.0 0.00 0.00 0.00 78 1008.1
20260504015451 20 0 0.0 0.0 0.00 0.00 0.00 81 1008.1
20260504014951 20 0 0.0 0.0 0.00 0.00 0.00 80 1008.5
20260504014450 20 0 0.0 0.0 0.00 0.00 0.00 82 1008.5
20260504014003 20 0 0.0 0.0 0.00 0.00 0.00 79 1008.6
20260504013949 20 0 0.0 0.0 0.00 0.00 0.00 79 1008.6
20260504013503 20 0 0.0 0.0 0.00 0.00 0.00 83 1008.6
20260504013450 20 0 0.0 0.0 0.00 0.00 0.00 83 1008.6
20260504013005 20 0 0.0 0.0 0.00 0.00 0.00 83 1008.3
20260504012950 20 0 0.0 0.0 0.00 0.00 0.00 83 1008.4
20260504012449 20 0 0.0 0.0 0.00 0.00 0.00 84 1008.3
20260504012003 20 0 0.0 0.0 0.00 0.00 0.00 84 1008.2
20260504011950 20 0 0.0 0.0 0.00 0.00 0.00 84 1008.1
20260504011505 20 0 0.0 0.0 0.00 0.00 0.00 86 1008.1
20260504011449 20 0 0.0 0.0 0.00 0.00 0.00 86 1008.2
20260504011003 20 0 0.0 0.0 0.00 0.00 0.00 85 1008.2
20260504010949 20 0 0.0 0.0 0.00 0.00 0.00 85 1008.3
20260504010450 20 0 0.0 0.0 0.00 0.00 0.00 86 1008.1
20260504010004 20 0 0.0 0.0 0.00 0.00 0.00 85 1008.0
20260504005950 20 0 0.0 0.0 0.00 0.00 0.00 85 1007.9
20260504005503 20 0 0.0 0.0 0.00 0.00 0.00 86 1008.1
20260504005450 20 0 0.0 0.0 0.00 0.00 0.00 86 1008.0
20260504005004 20 0 0.0 0.0 0.00 0.00 0.00 86 1008.2
20260504004950 20 0 0.0 0.0 0.00 0.00 0.00 86 1008.3
20260504004450 20 0 0.0 0.0 0.00 0.00 0.00 85 1008.2
20260504003950 20 0 0.0 0.0 0.00 0.00 0.00 86 1008.0
20260504003503 20 0 0.0 0.0 0.00 0.00 0.00 85 1007.9
20260504003450 20 0 0.0 0.0 0.00 0.00 0.00 85 1007.8
20260504003003 20 0 0.0 0.0 0.00 0.00 0.00 84 1007.9
20260504002950 20 0 0.0 0.0 0.00 0.00 0.00 85 1007.7
20260504002503 20 0 0.0 0.0 0.00 0.00 0.00 86 1007.9
20260504002450 20 0 0.0 0.0 0.00 0.00 0.00 86 1008.0
20260504001950 20 0 0.0 0.0 0.00 0.00 0.00 84 1008.1
20260504001504 20 0 0.0 0.0 0.00 0.00 0.00 85 1007.9
20260504001450 20 0 0.0 0.0 0.00 0.00 0.00 85 1008.0
20260504000950 20 0 0.0 0.0 0.00 0.00 0.00 85 1007.9
20260504000504 20 0 0.0 0.0 0.00 0.00 0.00 86 1008.1
20260504000450 20 0 0.0 0.0 0.00 0.00 0.00 86 1008.0
20260503235949 20 0 0.0 0.0 0.00 0.00 0.00 85 1008.0
20260503235503 20 0 0.0 0.0 0.00 0.00 0.00 85 1008.1
20260503235449 20 0 0.0 0.0 0.00 0.00 0.00 85 1008.2
20260503234949 20 0 0.0 0.0 0.00 0.00 0.00 86 1008.1
20260503234449 20 0 0.0 0.0 0.00 0.00 0.00 87 1008.1
20260503233949 20 0 0.0 0.0 0.00 0.00 0.00 86 1008.3
20260503233503 20 0 0.0 0.0 0.00 0.00 0.00 86 1008.3
20260503233449 20 0 0.0 0.0 0.00 0.00 0.00 86 1008.5
20260503232949 20 0 0.0 0.0 0.00 0.00 0.00 85 1008.6
20260503232501 20 0 0.0 0.0 0.00 0.00 0.00 83 1008.6
20260503232450 20 0 0.0 0.0 0.00 0.00 0.00 83 1008.5
20260503232002 20 0 0.0 0.0 0.00 0.00 0.00 83 1008.4
20260503231949 20 0 0.0 0.0 0.00 0.00 0.00 83 1008.3
20260503231449 20 0 0.0 0.0 0.00 0.00 0.00 85 1008.7
20260503231001 20 0 0.0 0.0 0.00 0.00 0.00 85 1008.7
20260503230950 20 0 0.0 0.0 0.00 0.00 0.00 86 1008.8
20260503230449 20 0 0.0 0.0 0.00 0.00 0.00 86 1008.6
20260503225949 20 0 0.0 0.0 0.00 0.00 0.00 86 1008.5
20260503225501 20 0 0.0 0.0 0.00 0.00 0.00 86 1008.3
20260503225449 20 0 0.0 0.0 0.00 0.00 0.00 86 1008.2
20260503224948 20 0 0.0 0.0 0.00 0.00 0.00 86 1008.1
20260503224449 20 0 0.0 0.0 0.00 0.00 0.00 85 1008.0
20260503224004 20 0 0.0 0.0 0.00 0.00 0.00 85 1008.1
20260503223949 20 0 0.0 0.0 0.00 0.00 0.00 85 1008.0
20260503223503 20 0 0.0 0.0 0.00 0.00 0.00 85 1007.8
20260503223447 20 0 0.0 0.0 0.00 0.00 0.00 85 1007.7
20260503222946 20 0 0.0 0.0 0.00 0.00 0.00 85 1007.8
20260503222503 20 0 0.0 0.0 0.00 0.00 0.00 85 1007.7
20260503222446 20 0 0.0 0.0 0.00 0.00 0.00 85 1007.9
20260503222004 20 0 0.0 0.0 0.00 0.00 0.00 85 1007.4
20260503221946 20 0 0.0 0.0 0.00 0.00 0.00 85 1007.3
20260503221502 20 0 0.0 0.0 0.00 0.00 0.00 84 1007.4
20260503221445 20 0 0.0 0.0 0.00 0.00 0.00 84 1007.3
20260503221003 20 0 0.0 0.0 0.00 0.00 0.00 84 1007.5
20260503220945 20 0 0.0 0.0 0.00 0.00 0.00 84 1007.4
20260503220445 20 0 0.0 0.0 0.00 0.00 0.00 84 1007.3
20260503215945 20 0 0.0 0.0 0.00 0.00 0.00 83 1007.1
20260503215503 20 0 0.0 0.0 0.00 0.00 0.00 83 1007.0
20260503215445 20 0 0.0 0.0 0.00 0.00 0.00 83 1007.1
20260503214945 20 0 0.0 0.0 0.00 0.00 0.00 83 1007.2
20260503214445 20 0 0.0 0.0 0.00 0.00 0.00 82 1006.9
20260503213945 20 0 0.0 0.0 0.00 0.00 0.00 81 1006.9
20260503213445 20 0 0.0 0.0 0.00 0.00 0.00 81 1006.8
20260503213003 20 0 0.0 0.0 0.00 0.00 0.00 81 1006.6
20260503212945 20 0 0.0 0.0 0.00 0.00 0.00 81 1006.8
20260503212503 20 0 0.0 0.0 0.00 0.00 0.00 80 1006.5
20260503212445 20 0 0.0 0.0 0.00 0.00 0.00 80 1006.3
20260503212004 20 0 0.0 0.0 0.00 0.00 0.00 79 1006.2
20260503211945 20 0 0.0 0.0 0.00 0.00 0.00 79 1006.1
20260503211445 20 0 0.0 0.0 0.00 0.00 0.00 79 1006.1
20260503210945 20 0 0.0 0.0 0.00 0.00 0.00 78 1006.1
20260503210446 20 0 0.0 0.0 0.00 0.00 0.00 77 1005.8
20260503205945 20 0 0.0 0.0 0.00 0.00 0.00 77 1005.9
20260503205446 20 0 0.0 0.0 0.00 0.00 0.00 76 1005.9
20260503204945 20 0 0.0 0.0 0.00 0.00 0.00 78 1006.0
20260503204503 20 0 0.0 0.0 0.00 0.00 0.00 77 1005.8
20260503204445 20 0 0.0 0.0 0.00 0.00 0.00 77 1006.0
20260503203945 20 0 0.0 0.0 0.00 0.00 0.00 77 1005.7
20260503203446 20 0 0.0 0.0 0.00 0.00 0.00 77 1005.7
20260503202944 20 0 0.0 0.0 0.00 0.00 0.00 76 1005.7
20260503202500 21 0 0.0 0.0 0.00 0.00 0.00 74 1005.7
20260503202444 21 0 0.0 0.0 0.00 0.00 0.00 74 1005.8
20260503201943 21 0 0.0 0.0 0.00 0.00 0.00 73 1005.6
20260503201502 21 0 0.0 0.0 0.00 0.00 0.00 72 1005.2
20260503201444 21 0 0.0 0.0 0.00 0.00 0.00 72 1005.3
20260503201002 21 0 0.0 0.0 0.00 0.00 0.00 72 1005.2
20260503200945 21 0 0.0 0.0 0.00 0.00 0.00 72 1005.1
20260503200445 21 0 0.0 0.0 0.00 0.00 0.00 72 1005.1
20260503195945 21 0 0.0 0.0 0.00 0.00 0.00 73 1005.0
20260503195500 21 0 0.0 0.0 0.00 0.00 0.00 73 1004.9
20260503195445 21 0 0.0 0.0 0.00 0.00 0.00 73 1005.0
20260503195000 21 0 0.0 0.0 0.00 0.00 0.00 74 1004.9
20260503194945 21 0 0.0 0.0 0.00 0.00 0.00 74 1005.1
20260503194445 21 0 0.0 0.0 0.00 0.00 0.00 74 1004.8
20260503193945 21 0 0.0 0.0 0.00 0.00 0.00 74 1004.8
20260503193445 21 0 0.0 0.0 0.00 0.00 0.00 75 1004.7
20260503193002 21 0 0.0 0.0 0.00 0.00 0.00 76 1004.7
20260503192945 21 0 0.0 0.0 0.00 0.00 0.00 76 1004.6
20260503192445 20 0 0.0 0.0 0.00 0.00 0.00 76 1004.7
20260503192000 21 0 0.0 0.0 0.00 0.00 0.00 77 1004.5
20260503191945 21 0 0.0 0.0 0.00 0.00 0.00 77 1004.4
20260503191500 21 0 0.0 0.0 0.00 0.00 0.00 77 1004.4
20260503191445 21 0 0.0 0.0 0.00 0.00 0.00 77 1004.5
20260503190945 21 0 0.0 0.0 0.00 0.00 0.00 78 1004.5
20260503190445 21 0 0.0 0.0 0.00 0.00 0.00 78 1004.5
20260503190000 20 0 0.0 0.0 0.00 0.00 0.00 78 1004.4
20260503185946 21 0 0.0 0.0 0.00 0.00 0.00 78 1004.4
20260503185445 21 0 0.0 0.0 0.00 0.00 0.00 78 1004.4
20260503184945 21 0 0.0 0.0 0.00 0.00 0.00 79 1004.4
20260503184459 21 0 0.0 0.0 0.00 0.00 0.00 79 1004.3
20260503184445 21 0 0.0 0.0 0.00 0.00 0.00 79 1004.4
20260503183959 21 0 0.0 0.0 0.00 0.00 0.00 78 1004.3
20260503183943 21 0 0.0 0.0 0.00 0.00 0.00 78 1004.4
20260503183443 21 0 0.0 0.0 0.00 0.00 0.00 78 1004.4
20260503183001 21 0 0.0 0.0 0.00 0.00 0.00 78 1004.4
20260503182944 21 0 0.0 0.0 0.00 0.00 0.00 79 1004.5
20260503182442 21 0 0.0 0.0 0.00 0.00 0.00 79 1004.5
20260503181958 21 0 0.0 0.0 0.00 0.00 0.00 79 1004.3
20260503181942 21 0 0.0 0.0 0.00 0.00 0.00 79 1004.4
20260503181442 21 0 0.0 0.0 0.00 0.00 0.00 79 1004.5
20260503180959 21 0 0.0 0.0 0.00 0.00 0.00 79 1004.5
20260503180942 21 0 0.0 0.0 0.00 0.00 0.00 79 1004.3
20260503180500 21 0 0.0 0.0 0.00 0.00 0.00 78 1004.4
20260503180442 21 0 0.0 0.0 0.00 0.00 0.00 78 1004.2
20260503175942 21 0 0.0 0.0 0.00 0.00 0.00 77 1004.4
20260503175501 21 0 0.0 0.0 0.00 0.00 0.00 77 1004.6
20260503175443 21 0 0.0 0.0 0.00 0.00 0.00 77 1004.5
20260503174958 21 0 0.0 0.0 0.00 0.00 0.00 77 1004.6
20260503174942 21 0 0.0 0.0 0.00 0.00 0.00 77 1004.5
20260503174442 21 0 0.0 0.0 0.00 0.00 0.00 78 1004.5
20260503173957 21 0 0.0 0.0 0.00 0.00 0.00 78 1004.3
20260503173942 21 0 0.0 0.0 0.00 0.00 0.00 78 1004.2
20260503173443 21 0 0.0 0.0 0.00 0.00 0.00 79 1004.3
20260503172959 21 0 0.0 0.0 0.00 0.00 0.00 79 1004.3
20260503172943 21 0 0.0 0.0 0.00 0.00 0.00 79 1004.4
20260503172459 21 0 0.0 0.0 0.00 0.00 0.00 79 1004.5
20260503172443 21 0 0.0 0.0 0.00 0.00 0.00 79 1004.4
20260503171943 21 0 0.0 0.0 0.00 0.00 0.00 78 1004.3
20260503171458 21 0 0.0 0.0 0.00 0.00 0.00 78 1004.3
20260503171443 21 0 0.0 0.0 0.00 0.00 0.00 78 1004.4
20260503170943 21 0 0.0 0.0 0.00 0.00 0.00 78 1004.3
20260503170443 21 0 0.0 0.0 0.00 0.00 0.00 79 1004.3
20260503150941 22 0 0.0 0.0 0.00 0.00 0.00 81 1004.0
20260503150454 22 0 0.0 0.0 0.00 0.00 0.00 80 1004.1
20260503150441 22 0 0.0 0.0 0.00 0.00 0.00 80 1004.0
20260503130940 25 0 0.0 0.0 0.00 0.00 0.00 82 1001.5
20260503130452 25 0 0.0 0.0 0.00 0.00 0.00 82 1001.6
20260503130441 25 0 0.0 0.0 0.00 0.00 0.00 82 1001.5